CW7539 Weather Reports


time (UTC)temp
C
wind
direction
speed
KPH
gust
KPH
rain 1hr
cm
rain 24hr
cm
rain mn
cm
humidity
%
barometer
mb
20260504050534 3 285 0.0 1.6 0.00 0.00 0.00 87 1013.2
20260504045532 3 264 0.0 1.6 0.00 0.00 0.00 87 1013.2
20260504045033 3 278 0.0 1.6 0.00 0.00 0.00 86 1013.3
20260504044546 4 272 0.0 1.6 0.00 0.00 0.00 86 1013.3
20260504044034 4 0 0.0 1.6 0.00 0.00 0.00 86 1013.2
20260504043533 4 0 0.0 1.6 0.00 0.00 0.00 86 1013.2
20260504043045 4 0 0.0 1.6 0.00 0.00 0.00 85 1013.2
20260504042533 4 268 0.0 1.6 0.00 0.00 0.00 85 1013.2
20260504042031 4 263 0.0 1.6 0.00 0.00 0.00 85 1013.2
20260504041548 4 0 0.0 1.6 0.00 0.00 0.00 85 1013.1
20260504041031 4 0 0.0 1.6 0.00 0.00 0.00 84 1013.0
20260504040532 5 0 0.0 1.6 0.00 0.00 0.00 85 1012.9
20260504040049 5 0 0.0 1.6 0.00 0.00 0.00 84 1012.8
20260504035535 5 0 0.0 1.6 0.00 0.00 0.00 84 1012.9
20260504035038 5 265 0.0 1.6 0.00 0.00 0.00 83 1012.8
20260504034546 5 0 0.0 1.6 0.00 0.00 0.00 83 1012.8
20260504034035 5 278 0.0 1.6 0.00 0.00 0.00 83 1012.6
20260504033534 5 0 0.0 1.6 0.00 0.00 0.00 82 1012.7
20260504033053 5 0 0.0 0.0 0.00 0.00 0.00 82 1012.8
20260504032531 5 0 0.0 1.6 0.00 0.00 0.00 81 1012.6
20260504032034 5 0 0.0 1.6 0.00 0.00 0.00 81 1012.5
20260504031558 5 260 0.0 1.6 0.00 0.00 0.00 80 1012.5
20260504031034 6 0 0.0 1.6 0.00 0.00 0.00 80 1012.5
20260504030532 6 0 0.0 1.6 0.00 0.00 0.00 80 1012.5
20260504030049 6 292 0.0 3.2 0.00 0.00 0.00 79 1012.4
20260504025532 6 330 0.0 3.2 0.00 0.00 0.00 78 1012.5
20260504025034 6 290 0.0 3.2 0.00 0.00 0.00 77 1012.5
20260504024555 6 342 0.0 1.6 0.00 0.00 0.00 77 1012.6
20260504024035 6 0 0.0 4.8 0.00 0.00 0.00 78 1012.5
20260504023534 6 260 0.0 4.8 0.00 0.00 0.00 76 1012.5
20260504023053 6 280 0.0 4.8 0.00 0.00 0.00 76 1012.7
20260504022536 6 270 0.0 3.2 0.00 0.00 0.00 76 1012.6
20260504022037 6 265 0.0 3.2 0.00 0.00 0.00 76 1012.5
20260504021552 7 330 0.0 1.6 0.00 0.00 0.00 76 1012.4
20260504021036 7 274 0.0 1.6 0.00 0.00 0.00 75 1012.5
20260504020534 7 0 0.0 1.6 0.00 0.00 0.00 74 1012.5
20260504020050 7 0 0.0 1.6 0.00 0.00 0.00 74 1012.4
20260504015534 7 0 0.0 1.6 0.00 0.00 0.00 73 1012.4
20260504015034 7 0 0.0 1.6 0.00 0.00 0.00 72 1012.4
20260504014549 7 0 0.0 3.2 0.00 0.00 0.00 73 1012.4
20260504014033 8 0 0.0 3.2 0.00 0.00 0.00 72 1012.3
20260504013534 8 1 0.0 3.2 0.00 0.00 0.00 70 1012.4
20260504013048 8 0 0.0 3.2 0.00 0.00 0.00 70 1012.3
20260504012535 8 283 0.0 3.2 0.00 0.00 0.00 69 1012.2
20260504012031 8 265 0.0 1.6 0.00 0.00 0.00 69 1012.2
20260504011551 8 0 0.0 1.6 0.00 0.00 0.00 69 1012.2
20260504011035 8 0 0.0 1.6 0.00 0.00 0.00 67 1012.2
20260504010535 9 276 0.0 1.6 0.00 0.00 0.00 67 1012.2
20260504010047 9 275 0.0 1.6 0.00 0.00 0.00 65 1012.1
20260504005534 9 316 0.0 1.6 0.00 0.00 0.00 65 1011.9
20260504005034 10 0 0.0 1.6 0.00 0.00 0.00 65 1011.8
20260504004600 10 0 0.0 1.6 0.00 0.00 0.00 65 1011.7
20260504004033 10 0 0.0 1.6 0.00 0.00 0.00 63 1011.7
20260504003534 10 321 0.0 1.6 0.00 0.00 0.00 62 1011.6
20260504003046 11 0 0.0 1.6 0.00 0.00 0.00 60 1011.6
20260504002534 11 351 0.0 1.6 0.00 0.00 0.00 58 1011.5
20260504002038 11 351 0.0 1.6 0.00 0.00 0.00 57 1011.4
20260504001549 11 0 0.0 3.2 0.00 0.00 0.00 54 1011.4
20260504001034 12 0 0.0 3.2 0.00 0.00 0.00 53 1011.4
20260504000534 12 338 0.0 3.2 0.00 0.00 0.00 51 1011.3
20260504000051 12 0 0.0 1.6 0.00 0.00 0.00 50 1011.1
20260503235534 12 0 0.0 1.6 0.00 0.00 0.00 50 1011.2
20260503235032 13 0 0.0 1.6 0.00 0.00 0.00 45 1011.0
20260503234553 13 266 0.0 1.6 0.00 0.00 0.00 44 1010.9
20260503234035 13 0 0.0 6.4 0.00 0.00 0.00 42 1010.9
20260503233534 14 0 0.0 8.0 0.00 0.00 0.00 40 1010.8
20260503233047 14 275 0.0 8.0 0.00 0.00 0.00 40 1010.7
20260503232531 14 295 0.0 9.7 0.00 0.00 0.00 41 1010.8
20260503232031 14 285 3.2 9.7 0.00 0.00 0.00 39 1010.8
20260503231553 14 279 1.6 8.0 0.00 0.00 0.00 41 1010.9
20260503231034 14 0 0.0 6.4 0.00 0.00 0.00 41 1010.9
20260503230533 15 293 1.6 9.7 0.00 0.00 0.00 40 1010.8
20260503230051 15 102 0.0 9.7 0.00 0.00 0.00 39 1010.8
20260503225538 15 195 3.2 9.7 0.00 0.00 0.00 37 1010.7
20260503225032 15 203 0.0 8.0 0.00 0.00 0.00 38 1010.8
20260503224548 15 257 3.2 9.7 0.00 0.00 0.00 36 1010.8
20260503224034 15 319 1.6 12.9 0.00 0.00 0.00 35 1010.8
20260503223532 16 229 4.8 19.3 0.00 0.00 0.00 35 1010.8
20260503223044 16 297 3.2 19.3 0.00 0.00 0.00 34 1010.9
20260503222531 16 278 3.2 12.9 0.00 0.00 0.00 34 1010.7
20260503222038 16 253 1.6 12.9 0.00 0.00 0.00 33 1010.7
20260503221543 16 266 1.6 12.9 0.00 0.00 0.00 33 1010.6
20260503221034 16 356 4.8 17.7 0.00 0.00 0.00 33 1010.6
20260503220534 16 270 8.0 17.7 0.00 0.00 0.00 32 1010.7
20260503220046 16 317 6.4 17.7 0.00 0.00 0.00 32 1010.7
20260503215534 16 296 6.4 17.7 0.00 0.00 0.00 32 1010.8
20260503215033 16 279 8.0 16.1 0.00 0.00 0.00 31 1010.6
20260503214539 17 280 4.8 17.7 0.00 0.00 0.00 32 1010.5
20260503214032 16 195 3.2 17.7 0.00 0.00 0.00 32 1010.3
20260503213532 16 271 4.8 12.9 0.00 0.00 0.00 32 1010.3
20260503213052 16 283 4.8 11.3 0.00 0.00 0.00 30 1010.4
20260503212536 16 291 3.2 11.3 0.00 0.00 0.00 32 1010.2
20260503212034 16 227 3.2 16.1 0.00 0.00 0.00 33 1010.2
20260503211547 16 288 6.4 16.1 0.00 0.00 0.00 32 1010.3
20260503211033 16 272 6.4 16.1 0.00 0.00 0.00 31 1010.3
20260503210534 16 228 6.4 16.1 0.00 0.00 0.00 31 1010.4
20260503210044 16 2 6.4 14.5 0.00 0.00 0.00 30 1010.4
20260503205533 16 297 4.8 17.7 0.00 0.00 0.00 32 1010.4
20260503205034 16 3 8.0 29.0 0.00 0.00 0.00 32 1010.3
20260503204541 16 11 8.0 29.0 0.00 0.00 0.00 32 1010.4
20260503204032 16 265 1.6 20.9 0.00 0.00 0.00 34 1010.5
20260503203536 16 328 1.6 20.9 0.00 0.00 0.00 35 1010.6
20260503203041 15 47 6.4 20.9 0.00 0.00 0.00 32 1010.7
20260503202534 15 288 3.2 20.9 0.00 0.00 0.00 31 1010.8
20260503202037 16 277 6.4 17.7 0.00 0.00 0.00 34 1010.7
20260503201541 15 269 6.4 17.7 0.00 0.00 0.00 31 1010.7
20260503201033 16 330 6.4 17.7 0.00 0.00 0.00 32 1010.9
20260503200533 16 263 8.0 17.7 0.00 0.00 0.00 32 1011.0
20260503200043 16 343 8.0 17.7 0.00 0.00 0.00 32 1011.0
20260503195533 15 56 6.4 17.7 0.00 0.00 0.00 37 1011.0
20260503195031 15 286 4.8 14.5 0.00 0.00 0.00 35 1011.1
20260503194544 15 337 4.8 16.1 0.00 0.00 0.00 35 1011.0
20260503194033 15 290 4.8 25.7 0.00 0.00 0.00 35 1011.3
20260503193534 15 271 9.7 25.7 0.00 0.00 0.00 33 1011.3
20260503193049 15 257 9.7 20.9 0.00 0.00 0.00 34 1011.2
20260503192532 15 285 3.2 20.9 0.00 0.00 0.00 35 1011.2
20260503192034 15 256 6.4 20.9 0.00 0.00 0.00 34 1011.3
20260503191541 15 309 3.2 20.9 0.00 0.00 0.00 38 1011.4
20260503191034 15 278 6.4 20.9 0.00 0.00 0.00 36 1011.4
20260503190534 15 316 6.4 24.1 0.00 0.00 0.00 34 1011.5
20260503190047 15 263 8.0 29.0 0.00 0.00 0.00 35 1011.5
20260503185531 15 194 9.7 29.0 0.00 0.00 0.00 35 1011.5
20260503185036 15 285 12.9 29.0 0.00 0.00 0.00 33 1011.5
20260503184601 15 300 8.0 20.9 0.00 0.00 0.00 33 1011.5
20260503184030 15 263 8.0 24.1 0.00 0.00 0.00 33 1011.6
20260503183531 15 263 8.0 24.1 0.00 0.00 0.00 36 1011.7
20260503183047 15 274 9.7 24.1 0.00 0.00 0.00 34 1011.6
20260503182541 14 289 4.8 17.7 0.00 0.00 0.00 34 1011.7
20260503182038 14 25 6.4 20.9 0.00 0.00 0.00 33 1011.8
20260503181546 14 320 4.8 27.4 0.00 0.00 0.00 35 1011.9
20260503181031 14 249 9.7 27.4 0.00 0.00 0.00 34 1011.8
20260503180533 14 336 6.4 22.5 0.00 0.00 0.00 38 1011.8
20260503180049 13 296 8.0 22.5 0.00 0.00 0.00 37 1011.8
20260503175533 13 321 8.0 22.5 0.00 0.00 0.00 36 1011.8
20260503175033 13 283 8.0 20.9 0.00 0.00 0.00 35 1011.8
20260503174600 13 264 8.0 20.9 0.00 0.00 0.00 35 1011.9
20260503174034 13 319 6.4 17.7 0.00 0.00 0.00 37 1012.1
20260503173533 13 285 4.8 30.6 0.00 0.00 0.00 36 1012.1
20260503173049 13 249 8.0 30.6 0.00 0.00 0.00 35 1012.0
20260503172533 13 37 11.3 30.6 0.00 0.00 0.00 35 1012.1
20260503172032 13 292 8.0 19.3 0.00 0.00 0.00 35 1012.0
20260503171541 13 342 3.2 16.1 0.00 0.00 0.00 40 1012.1
20260503171033 13 279 6.4 17.7 0.00 0.00 0.00 37 1012.1
20260503170534 13 330 6.4 17.7 0.00 0.00 0.00 36 1012.2
20260503150532 9 293 6.4 19.3 0.00 0.00 0.00 49 1013.2
20260503131034 8 328 3.2 19.3 0.00 0.00 0.00 54 1013.2
20260503130532 8 307 6.4 19.3 0.00 0.00 0.00 54 1013.1
20260503110535 6 0 3.2 11.3 0.00 0.00 0.00 64 1012.7
20260503081548 7 53 4.8 17.7 0.00 0.00 0.00 58 1011.3
20260503081035 7 264 4.8 12.9 0.00 0.00 0.00 58 1011.3
20260503080539 7 0 1.6 8.0 0.00 0.00 0.00 58 1011.2
20260503072533 7 289 4.8 14.5 0.00 0.03 0.00 56 1011.0
20260503072035 7 0 1.6 12.9 0.00 0.03 0.00 58 1011.0
20260503071552 7 326 4.8 12.9 0.00 0.03 0.00 57 1011.1
20260503071034 7 296 1.6 8.0 0.00 0.03 0.00 58 1011.0
20260503070533 8 0 0.0 4.8 0.00 0.03 0.00 59 1010.9
20260503070126 8 268 0.0 4.8 0.00 0.03 0.00 60 1011.1
20260503055033 8 294 0.0 4.8 0.00 0.05 0.00 57 1011.4
20260503054539 8 291 1.6 8.0 0.00 0.05 0.00 56 1011.5
20260503054034 8 38 1.6 8.0 0.00 0.05 0.00 57 1011.5
20260503053533 8 154 0.0 9.7 0.00 0.05 0.00 57 1011.5
20260503053048 8 0 1.6 9.7 0.00 0.05 0.00 57 1011.5
20260503052533 8 0 0.0 4.8 0.00 0.05 0.00 57 1011.5